Weather History for Hayward, WI

Change the Weather History Date:

Tuesday, April 2, 2013

  Actual Average Record
Temperature  
Mean Temperature 22 °F -  
Max Temperature 37 °F 49 °F 64 °F (2012)
Min Temperature 9 °F 26 °F 9 °F (2013)
Degree Days  
Heating Degree Days 42    
Moisture  
Dew Point 6 °F    
Average Humidity 51    
Maximum Humidity 84    
Minimum Humidity 24    
Precipitation  
Precipitation 0.00 in - - ()
Sea Level Pressure  
Sea Level Pressure 30.29 in    
Wind  
Wind Speed 2 mph (WNW)    
Max Wind Speed 8 mph    
Max Gust Speed -    
Visibility 10 miles    
Events      
Averages and records for this station are not official NWS values.
T = Trace of Precipitation, MM = Missing Value Source: NWS Daily Summary

Daily Weather History Graph

Daily Weather History Graph

Search for Another Location

Airport:

Trip Planner

Search our weather history database for the weather conditions in past years. The results will help you decide how hot, cold, wet, or windy it might be!

Date:

Astronomy

Apr. 02, 2013 Rise Set
Actual Time 6:43 AM CDT 7:36 PM CDT
Civil Twilight 6:12 AM CDT 8:06 PM CDT
Nautical Twilight 5:36 AM CDT 8:42 PM CDT
Astronomical Twilight 4:58 AM CDT 9:20 PM CDT
Moon 1:54 AM CDT (4/2) 11:21 AM CDT (4/2)
Length of Visible Light 13h 53m
Length of Day
12h 52m
Waning Gibbous, 55% of the Moon is Illuminated
Apr 2
Waning Gibbous
Apr 2
Last Quarter
Apr 10
New
Apr 18
First Quarter
Apr 25
Full

Hourly Weather History & Observations

Time (CDT) Temp. Windchill Dew Point Humidity Pressure Visibility Wind Dir Wind Speed Gust Speed Precip Events Conditions
12:53 AM 24.1 °F 18.2 °F 7.0 °F 48% 30.22 in 10.0 mi Variable 4.6 mph - N/A   Clear
1:53 AM 21.0 °F - 7.0 °F 55% 30.23 in 10.0 mi Calm Calm - N/A   Clear
2:53 AM 19.0 °F - 7.0 °F 59% 30.23 in 10.0 mi Calm Calm - N/A   Clear
3:53 AM 16.0 °F - 7.0 °F 68% 30.23 in 10.0 mi Calm Calm - N/A   Clear
4:53 AM 12.9 °F - 6.1 °F 74% 30.24 in 10.0 mi Calm Calm - N/A   Clear
5:53 AM 12.0 °F - 7.0 °F 80% 30.25 in 10.0 mi Calm Calm - N/A   Clear
6:53 AM 9.0 °F - 5.0 °F 84% 30.26 in 10.0 mi Calm Calm - N/A   Clear
7:53 AM 18.0 °F - 9.0 °F 68% 30.28 in 10.0 mi Calm Calm - N/A   Clear
8:53 AM 21.0 °F - 10.0 °F 63% 30.28 in 10.0 mi Calm Calm - N/A   Clear
9:53 AM 24.1 °F - 10.0 °F 55% 30.29 in 10.0 mi Calm Calm - N/A   Scattered Clouds
10:53 AM 26.1 °F 18.4 °F 10.0 °F 51% 30.29 in 10.0 mi West 6.9 mph - N/A   Mostly Cloudy
11:53 AM 30.0 °F 22.4 °F 7.0 °F 38% 30.29 in 10.0 mi West 8.1 mph - N/A   Clear
12:53 PM 33.1 °F 27.7 °F 3.9 °F 29% 30.28 in 10.0 mi Variable 5.8 mph - N/A   Clear
1:53 PM 33.1 °F 26.9 °F 1.0 °F 26% 30.29 in 10.0 mi Variable 6.9 mph - N/A   Clear
2:53 PM 34.0 °F 28.8 °F 3.9 °F 28% 30.29 in 10.0 mi Variable 5.8 mph - N/A   Clear
3:53 PM 36.0 °F 31.1 °F 1.9 °F 24% 30.29 in 10.0 mi Variable 5.8 mph - N/A   Clear
4:53 PM 36.0 °F 30.3 °F 3.0 °F 25% 30.30 in 10.0 mi Variable 6.9 mph - N/A   Clear
5:53 PM 36.0 °F 33.3 °F 3.9 °F 26% 30.31 in 10.0 mi Variable 3.5 mph - N/A   Clear
6:53 PM 34.0 °F 28.8 °F 3.9 °F 28% 30.32 in 10.0 mi NW 5.8 mph - N/A   Clear
7:53 PM 28.9 °F - 3.9 °F 35% 30.32 in 10.0 mi Calm Calm - N/A   Clear
8:53 PM 25.0 °F - 8.1 °F 49% 30.34 in 10.0 mi Calm Calm - N/A   Clear
9:53 PM 21.9 °F - 10.0 °F 60% 30.36 in 10.0 mi Calm Calm - N/A   Clear
10:53 PM 18.0 °F - 9.0 °F 68% 30.37 in 10.0 mi Calm Calm - N/A   Clear
11:53 PM 16.0 °F - 10.0 °F 77% 30.38 in 10.0 mi Calm Calm - N/A   Clear